Powrót do katalogu

COSMOS 1275 DEB

AktywnyPO
NORAD 12724·DEBRIS·🇷🇺 Russia

Wystrzelony Jun 4, 1981 z Plesetsk Cosmodrome

Loading…

Następne Przeloty (najbliższe 24 godziny)

TLE

ŚwieżeSource: Space-Track

Epoka: Sep 14, 2026, 05:56 UTC

1 12724U 81053BR  26257.24773259  .00000704  00000-0  39756-3 0  9998
2 12724  82.9344 186.3407 0017312 325.2579 187.3347 14.08870728290542

Śledź COSMOS 1275 DEB w czasie rzeczywistym z AllMySat

Download on the App Store